Hourly Weather Minsk

Today, 10 July, Friday

Time Temperature Precipitation Wind Pressure Humidity
00:00 +12°C° 0 mm 2 mps 744 mmHg 87%
01:00 +12°C° 0 mm 2 mps 743 mmHg 88%
02:00 +10°C° 0 mm 2 mps 744 mmHg 89%
03:00 +10°C° 0 mm 2 mps 743 mmHg 89%
04:00 +11°C° 0 mm 3 mps 743 mmHg 89%
05:00 +11°C° 0 mm 3 mps 743 mmHg 89%
06:00 +12°C° 0 mm 4 mps 743 mmHg 87%
07:00 +13°C° 0 mm 4 mps 742 mmHg 85%
08:00 +14°C° 0 mm 5 mps 742 mmHg 83%
09:00 +16°C° 0 mm 6 mps 742 mmHg 81%
10:00 +17°C° 0 mm 7 mps 742 mmHg 78%
11:00 +18°C° 0 mm 7 mps 742 mmHg 76%
12:00 +20°C° 0.1 mm 7 mps 741 mmHg 77%
13:00 +21°C° 0.1 mm 7 mps 741 mmHg 78%
14:00 +22°C° 0.1 mm 7 mps 740 mmHg 78%
15:00 +22°C° 0.7 mm 6 mps 740 mmHg 80%
16:00 +22°C° 0.7 mm 6 mps 740 mmHg 81%
17:00 +23°C° 0.7 mm 6 mps 740 mmHg 82%
18:00 +22°C° 0.5 mm 5 mps 740 mmHg 85%
19:00 +21°C° 0.5 mm 4 mps 740 mmHg 87%
20:00 +20°C° 0.5 mm 4 mps 740 mmHg 90%
21:00 +20°C° 0.3 mm 4 mps 740 mmHg 91%
22:00 +19°C° 0.3 mm 4 mps 740 mmHg 93%
23:00 +19°C° 0.3 mm 4 mps 740 mmHg 94%

Tomorrow, 11 July, Saturday

Time Temperature Precipitation Wind Pressure Humidity
00:00 +19°C° 0.4 mm 4 mps 740 mmHg 94%
01:00 +19°C° 0.4 mm 4 mps 740 mmHg 94%
02:00 +19°C° 0.4 mm 4 mps 740 mmHg 94%
03:00 +19°C° 0.2 mm 5 mps 740 mmHg 95%
04:00 +19°C° 0.2 mm 5 mps 740 mmHg 95%
05:00 +19°C° 0.2 mm 5 mps 740 mmHg 95%
06:00 +20°C° 0 mm 5 mps 740 mmHg 93%
07:00 +20°C° 0 mm 5 mps 741 mmHg 92%
08:00 +21°C° 0 mm 5 mps 741 mmHg 90%
09:00 +21°C° 0 mm 5 mps 742 mmHg 85%
10:00 +21°C° 0 mm 4 mps 742 mmHg 81%
11:00 +21°C° 0 mm 4 mps 743 mmHg 77%
12:00 +22°C° 0 mm 4 mps 743 mmHg 73%
13:00 +22°C° 0 mm 4 mps 743 mmHg 70%
14:00 +22°C° 0 mm 4 mps 743 mmHg 66%
15:00 +21°C° 0 mm 4 mps 743 mmHg 68%
16:00 +20°C° 0 mm 4 mps 744 mmHg 70%
17:00 +19°C° 0 mm 4 mps 744 mmHg 72%
18:00 +18°C° 0 mm 4 mps 744 mmHg 74%
19:00 +17°C° 0 mm 3 mps 744 mmHg 75%
20:00 +16°C° 0 mm 3 mps 744 mmHg 77%
21:00 +16°C° 0 mm 3 mps 744 mmHg 76%
22:00 +14°C° 0 mm 4 mps 745 mmHg 76%
23:00 +13°C° 0 mm 4 mps 745 mmHg 75%

Day after tomorrow, 12 July, Sunday

Time Temperature Precipitation Wind Pressure Humidity
00:00 +13°C° 0 mm 4 mps 745 mmHg 77%
01:00 +13°C° 0 mm 4 mps 745 mmHg 80%
02:00 +12°C° 0 mm 4 mps 745 mmHg 82%
03:00 +12°C° 0.5 mm 3 mps 745 mmHg 86%
04:00 +12°C° 0.5 mm 3 mps 745 mmHg 90%
05:00 +13°C° 0.5 mm 2 mps 745 mmHg 95%
06:00 +13°C° 1.3 mm 2 mps 745 mmHg 94%
07:00 +13°C° 1.3 mm 2 mps 745 mmHg 94%
08:00 +13°C° 1.3 mm 2 mps 746 mmHg 94%
09:00 +13°C° 0.3 mm 2 mps 746 mmHg 93%
10:00 +13°C° 0.3 mm 2 mps 746 mmHg 92%
11:00 +13°C° 0.3 mm 2 mps 746 mmHg 91%
12:00 +12°C° 0.2 mm 3 mps 746 mmHg 90%
13:00 +12°C° 0.2 mm 3 mps 746 mmHg 89%
14:00 +12°C° 0.2 mm 4 mps 746 mmHg 89%
15:00 +12°C° 0.5 mm 3 mps 746 mmHg 88%
16:00 +13°C° 0.5 mm 2 mps 745 mmHg 88%
17:00 +13°C° 0.5 mm 2 mps 745 mmHg 87%
18:00 +13°C° 0.1 mm 1 mps 745 mmHg 88%
19:00 +13°C° 0.1 mm 1 mps 745 mmHg 89%
20:00 +13°C° 0.1 mm 1 mps 745 mmHg 90%
21:00 +12°C° 0 mm 1 mps 745 mmHg 91%
22:00 +12°C° 0 mm 2 mps 745 mmHg 92%
23:00 +10°C° 0 mm 2 mps 745 mmHg 94%

13 July, Monday

Time Temperature Precipitation Wind Pressure Humidity
00:00 +10°C° 0 mm 3 mps 745 mmHg 94%
01:00 +10°C° 0 mm 3 mps 744 mmHg 94%
02:00 +10°C° 0 mm 3 mps 744 mmHg 95%
03:00 +9°C° 0 mm 3 mps 744 mmHg 95%
04:00 +9°C° 0 mm 3 mps 744 mmHg 95%
05:00 +9°C° 0 mm 3 mps 744 mmHg 95%
06:00 +10°C° 0 mm 4 mps 744 mmHg 91%
07:00 +12°C° 0 mm 4 mps 744 mmHg 86%
08:00 +13°C° 0 mm 4 mps 744 mmHg 82%
09:00 +14°C° 0 mm 4 mps 744 mmHg 77%
10:00 +15°C° 0 mm 4 mps 743 mmHg 72%
11:00 +17°C° 0 mm 4 mps 743 mmHg 66%
12:00 +18°C° 0 mm 4 mps 743 mmHg 65%
13:00 +18°C° 0 mm 4 mps 743 mmHg 64%
14:00 +19°C° 0 mm 4 mps 743 mmHg 62%
15:00 +19°C° 0 mm 4 mps 742 mmHg 62%
16:00 +19°C° 0 mm 4 mps 742 mmHg 63%
17:00 +19°C° 0 mm 4 mps 742 mmHg 63%
18:00 +17°C° 0 mm 3 mps 742 mmHg 68%
19:00 +16°C° 0 mm 3 mps 741 mmHg 73%
20:00 +15°C° 0 mm 2 mps 741 mmHg 79%
21:00 +14°C° 0 mm 2 mps 741 mmHg 80%
22:00 +13°C° 0 mm 2 mps 741 mmHg 80%
23:00 +11°C° 0 mm 3 mps 741 mmHg 81%

14 July, Tuesday

Time Temperature Precipitation Wind Pressure Humidity
00:00 +11°C° 0 mm 3 mps 742 mmHg 84%
01:00 +10°C° 0 mm 3 mps 742 mmHg 87%
02:00 +10°C° 0 mm 3 mps 742 mmHg 91%
03:00 +10°C° 0 mm 3 mps 742 mmHg 91%
04:00 +10°C° 0 mm 3 mps 742 mmHg 91%
05:00 +10°C° 0 mm 3 mps 742 mmHg 92%
06:00 +11°C° 0 mm 3 mps 742 mmHg 88%
07:00 +13°C° 0 mm 4 mps 742 mmHg 83%
08:00 +15°C° 0 mm 4 mps 742 mmHg 79%
09:00 +16°C° 0 mm 5 mps 742 mmHg 74%
10:00 +17°C° 0 mm 5 mps 742 mmHg 70%
11:00 +19°C° 0 mm 5 mps 742 mmHg 65%
12:00 +19°C° 0 mm 5 mps 742 mmHg 62%
13:00 +20°C° 0 mm 5 mps 742 mmHg 59%
14:00 +20°C° 0 mm 5 mps 742 mmHg 57%
15:00 +20°C° 0 mm 5 mps 742 mmHg 58%
16:00 +20°C° 0 mm 5 mps 742 mmHg 60%
17:00 +19°C° 0 mm 4 mps 742 mmHg 61%
18:00 +18°C° 0 mm 4 mps 742 mmHg 65%
19:00 +16°C° 0 mm 3 mps 742 mmHg 69%
20:00 +14°C° 0 mm 3 mps 742 mmHg 73%
21:00 +13°C° 0 mm 3 mps 742 mmHg 73%
22:00 +13°C° 0 mm 2 mps 742 mmHg 74%
23:00 +12°C° 0 mm 2 mps 742 mmHg 75%

15 July, Wednesday

Time Temperature Precipitation Wind Pressure Humidity
00:00 +12°C° 0 mm 2 mps 742 mmHg 78%
01:00 +10°C° 0 mm 2 mps 743 mmHg 80%
02:00 +10°C° 0 mm 2 mps 743 mmHg 83%
03:00 +10°C° 0 mm 2 mps 743 mmHg 84%
04:00 +10°C° 0 mm 2 mps 743 mmHg 86%
05:00 +10°C° 0 mm 2 mps 743 mmHg 87%
06:00 +13°C° 0 mm 2 mps 743 mmHg 83%
07:00 +15°C° 0 mm 2 mps 743 mmHg 78%
08:00 +17°C° 0 mm 2 mps 744 mmHg 74%
09:00 +18°C° 0 mm 3 mps 744 mmHg 69%
10:00 +19°C° 0 mm 3 mps 744 mmHg 64%
11:00 +20°C° 0 mm 3 mps 744 mmHg 59%
12:00 +21°C° 0 mm 3 mps 744 mmHg 57%
13:00 +21°C° 0 mm 2 mps 744 mmHg 55%
14:00 +23°C° 0 mm 2 mps 744 mmHg 53%
15:00 +23°C° 0 mm 2 mps 744 mmHg 54%
16:00 +21°C° 0 mm 2 mps 744 mmHg 56%
17:00 +21°C° 0 mm 2 mps 743 mmHg 57%
18:00 +21°C° 0 mm 1 mps 743 mmHg 62%
19:00 +19°C° 0 mm 1 mps 743 mmHg 66%
20:00 +18°C° 0 mm 1 mps 743 mmHg 71%
21:00 +16°C° 0 mm 1 mps 743 mmHg 73%
22:00 +15°C° 0 mm 1 mps 743 mmHg 75%
23:00 +14°C° 0 mm 1 mps 744 mmHg 77%
Show more